Time,TemperatureF,DewpointF,PressureIn,WindDirection,WindDirectionDegrees,WindSpeedMPH,WindSpeedGustMPH,Humidity,HourlyPrecipIn,Conditions,Clouds,dailyrainin,SoftwareType,DateUTC
2013-01-29 00:01:00,-8.0,-21.0,-100.00,NE,35,8.0,18.0,51,0.00,,,0.00,,2013-01-29 09:01:00,
2013-01-29 00:11:00,-8.0,-21.0,-100.00,NE,35,8.0,18.0,51,0.00,,,0.00,,2013-01-29 09:11:00,
2013-01-29 00:21:00,-8.0,-21.0,-100.00,NNE,20,7.0,19.0,51,0.00,,,0.00,,2013-01-29 09:21:00,
2013-01-29 00:31:00,-8.0,-21.0,-100.00,NNE,20,7.0,19.0,51,0.00,,,0.00,,2013-01-29 09:31:00,
2013-01-29 00:42:00,-8.0,-21.0,-100.00,NNE,20,7.0,19.0,51,0.00,,,0.00,,2013-01-29 09:42:00,
2013-01-29 00:52:00,-8.0,-22.0,-100.00,NNE,15,9.0,19.0,50,0.00,,,0.00,,2013-01-29 09:52:00,
2013-01-29 01:01:00,-8.0,-22.0,-100.00,NNE,15,9.0,19.0,50,0.00,,,0.00,,2013-01-29 10:01:00,
2013-01-29 01:11:00,-8.0,-22.0,-100.00,NNE,15,9.0,19.0,50,0.00,,,0.00,,2013-01-29 10:11:00,
2013-01-29 01:21:00,-9.0,-22.0,-100.00,NNE,20,9.0,16.0,51,0.00,,,0.00,,2013-01-29 10:21:00,
2013-01-29 01:32:00,-9.0,-22.0,-100.00,NNE,20,9.0,16.0,51,0.00,,,0.00,,2013-01-29 10:32:00,
2013-01-29 01:41:00,-9.0,-22.0,-100.00,NNE,20,9.0,16.0,51,0.00,,,0.00,,2013-01-29 10:41:00,
2013-01-29 01:52:00,-9.0,-22.0,-100.00,NNE,25,9.0,17.0,51,0.00,,,0.00,,2013-01-29 10:52:00,
2013-01-29 02:01:00,-9.0,-22.0,-100.00,NNE,25,9.0,17.0,51,0.00,,,0.00,,2013-01-29 11:01:00,
2013-01-29 02:11:00,-9.0,-22.0,-100.00,NNE,25,9.0,17.0,51,0.00,,,0.00,,2013-01-29 11:11:00,
2013-01-29 02:21:00,-9.0,-22.0,-100.00,North,5,9.0,17.0,51,0.00,,,0.00,,2013-01-29 11:21:00,
2013-01-29 02:32:00,-9.0,-22.0,-100.00,North,5,9.0,17.0,51,0.00,,,0.00,,2013-01-29 11:32:00,
2013-01-29 02:42:00,-9.0,-22.0,-100.00,North,5,9.0,17.0,51,0.00,,,0.00,,2013-01-29 11:42:00,
2013-01-29 02:52:00,-9.0,-22.0,-100.00,NNE,25,10.0,21.0,51,0.00,,,0.00,,2013-01-29 11:52:00,
2013-01-29 03:02:00,-9.0,-22.0,-100.00,NNE,25,10.0,21.0,51,0.00,,,0.00,,2013-01-29 12:02:00,
2013-01-29 03:12:00,-9.0,-22.0,-100.00,NNE,25,10.0,21.0,51,0.00,,,0.00,,2013-01-29 12:12:00,
2013-01-29 03:22:00,-9.0,-22.0,-100.00,North,10,9.0,21.0,51,0.00,,,0.00,,2013-01-29 12:22:00,
2013-01-29 03:32:00,-9.0,-22.0,-100.00,North,10,9.0,21.0,51,0.00,,,0.00,,2013-01-29 12:32:00,
2013-01-29 03:42:00,-9.0,-22.0,-100.00,North,10,9.0,21.0,51,0.00,,,0.00,,2013-01-29 12:42:00,
2013-01-29 03:52:00,-10.0,-23.0,-100.00,NNE,15,10.0,17.0,51,0.00,,,0.00,,2013-01-29 12:52:00,
2013-01-29 04:01:00,-10.0,-23.0,-100.00,NNE,15,10.0,17.0,51,0.00,,,0.00,,2013-01-29 13:01:00,
2013-01-29 04:11:00,-10.0,-23.0,-100.00,NNE,15,10.0,17.0,51,0.00,,,0.00,,2013-01-29 13:11:00,
2013-01-29 04:22:00,-10.0,-23.0,-100.00,NNE,25,7.0,16.0,51,0.00,,,0.00,,2013-01-29 13:22:00,
2013-01-29 04:32:00,-10.0,-23.0,-100.00,NNE,25,7.0,16.0,51,0.00,,,0.00,,2013-01-29 13:32:00,
2013-01-29 04:42:00,-10.0,-23.0,-100.00,NNE,25,7.0,16.0,51,0.00,,,0.00,,2013-01-29 13:42:00,
2013-01-29 04:52:00,-10.0,-23.0,-100.00,NNE,20,8.0,17.0,51,0.00,,,0.00,,2013-01-29 13:52:00,
2013-01-29 05:02:00,-10.0,-23.0,-100.00,NNE,20,8.0,17.0,51,0.00,,,0.00,,2013-01-29 14:02:00,
2013-01-29 05:12:00,-10.0,-23.0,-100.00,NNE,20,8.0,17.0,51,0.00,,,0.00,,2013-01-29 14:12:00,
2013-01-29 05:21:00,-10.0,-23.0,-100.00,NNE,15,7.0,15.0,51,0.00,,,0.00,,2013-01-29 14:21:00,
2013-01-29 05:32:00,-10.0,-23.0,-100.00,NNE,15,7.0,15.0,51,0.00,,,0.00,,2013-01-29 14:32:00,
2013-01-29 05:43:00,-10.0,-23.0,-100.00,NNE,15,7.0,15.0,51,0.00,,,0.00,,2013-01-29 14:43:00,
2013-01-29 05:52:00,-10.0,-23.0,-100.00,ENE,60,6.0,11.0,51,0.00,,,0.00,,2013-01-29 14:52:00,
2013-01-29 06:02:00,-10.0,-23.0,-100.00,ENE,60,6.0,11.0,51,0.00,,,0.00,,2013-01-29 15:02:00,
2013-01-29 06:11:00,-10.0,-23.0,-100.00,ENE,60,6.0,11.0,51,0.00,,,0.00,,2013-01-29 15:11:00,
2013-01-29 06:21:00,-10.0,-24.0,-100.00,ENE,60,6.0,9.0,51,0.00,,,0.00,,2013-01-29 15:21:00,
2013-01-29 06:33:00,-10.0,-24.0,-100.00,ENE,60,6.0,9.0,51,0.00,,,0.00,,2013-01-29 15:33:00,
2013-01-29 06:42:00,-10.0,-24.0,-100.00,ENE,60,6.0,9.0,51,0.00,,,0.00,,2013-01-29 15:42:00,
2013-01-29 06:53:00,-10.0,-23.0,-100.00,NNE,15,4.0,11.0,51,0.00,,,0.00,,2013-01-29 15:53:00,
2013-01-29 07:02:00,-10.0,-23.0,-100.00,NNE,15,4.0,11.0,51,0.00,,,0.00,,2013-01-29 16:02:00,
2013-01-29 07:12:00,-10.0,-23.0,-100.00,NNE,15,4.0,11.0,51,0.00,,,0.00,,2013-01-29 16:12:00,
2013-01-29 07:22:00,-9.0,-23.0,-100.00,North,0,7.0,12.0,51,0.00,,,0.00,,2013-01-29 16:22:00,
2013-01-29 07:32:00,-9.0,-23.0,-100.00,North,0,7.0,12.0,51,0.00,,,0.00,,2013-01-29 16:32:00,
2013-01-29 07:42:00,-9.0,-23.0,-100.00,North,0,7.0,12.0,51,0.00,,,0.00,,2013-01-29 16:42:00,
2013-01-29 07:53:00,-10.0,-23.0,-100.00,NE,35,4.0,9.0,51,0.00,,,0.00,,2013-01-29 16:53:00,
2013-01-29 08:02:00,-10.0,-23.0,-100.00,NE,35,4.0,9.0,51,0.00,,,0.00,,2013-01-29 17:02:00,
2013-01-29 08:12:00,-10.0,-23.0,-100.00,NE,35,4.0,9.0,51,0.00,,,0.00,,2013-01-29 17:12:00,
2013-01-29 08:21:00,-9.0,-23.0,-100.00,NE,45,5.0,11.0,50,0.00,,,0.00,,2013-01-29 17:21:00,
2013-01-29 08:32:00,-9.0,-23.0,-100.00,NE,45,5.0,11.0,50,0.00,,,0.00,,2013-01-29 17:32:00,
2013-01-29 08:42:00,-9.0,-23.0,-100.00,NE,45,5.0,11.0,50,0.00,,,0.00,,2013-01-29 17:42:00,
2013-01-29 08:52:00,-9.0,-23.0,-100.00,NE,35,5.0,10.0,50,0.00,,,0.00,,2013-01-29 17:52:00,
2013-01-29 09:03:00,-9.0,-23.0,-100.00,NE,35,5.0,10.0,50,0.00,,,0.00,,2013-01-29 18:03:00,
2013-01-29 09:12:00,-9.0,-23.0,-100.00,NE,35,5.0,10.0,50,0.00,,,0.00,,2013-01-29 18:12:00,
2013-01-29 09:22:00,-8.0,-23.0,-100.00,NE,45,6.0,9.0,48,0.00,,,0.00,,2013-01-29 18:22:00,
2013-01-29 09:33:00,-8.0,-23.0,-100.00,NE,45,6.0,9.0,48,0.00,,,0.00,,2013-01-29 18:33:00,
2013-01-29 09:42:00,-8.0,-23.0,-100.00,NE,45,6.0,9.0,48,0.00,,,0.00,,2013-01-29 18:42:00,
2013-01-29 09:52:00,-9.0,-23.0,-100.00,NE,55,4.0,7.0,48,0.00,,,0.00,,2013-01-29 18:52:00,
2013-01-29 10:02:00,-9.0,-23.0,-100.00,NE,55,4.0,7.0,48,0.00,,,0.00,,2013-01-29 19:02:00,
2013-01-29 10:11:00,-9.0,-23.0,-100.00,NE,55,4.0,7.0,48,0.00,,,0.00,,2013-01-29 19:11:00,
2013-01-29 10:22:00,-9.0,-23.0,-100.00,NE,40,5.0,9.0,48,0.00,,,0.00,,2013-01-29 19:22:00,
2013-01-29 10:32:00,-9.0,-23.0,-100.00,NE,40,5.0,9.0,48,0.00,,,0.00,,2013-01-29 19:32:00,
2013-01-29 10:42:00,-9.0,-23.0,-100.00,NE,40,5.0,9.0,48,0.00,,,0.00,,2013-01-29 19:42:00,
2013-01-29 10:52:00,-8.0,-23.0,-100.00,NNW,330,3.0,9.0,48,0.00,,,0.00,,2013-01-29 19:52:00,
2013-01-29 11:02:00,-8.0,-23.0,-100.00,NNW,330,3.0,9.0,48,0.00,,,0.00,,2013-01-29 20:02:00,
2013-01-29 11:12:00,-8.0,-23.0,-100.00,NNW,330,3.0,9.0,48,0.00,,,0.00,,2013-01-29 20:12:00,
2013-01-29 11:22:00,-8.0,-23.0,-100.00,NNW,330,3.0,9.0,48,0.00,,,0.00,,2013-01-29 20:22:00,
2013-01-29 11:53:00,-9.0,-23.0,-100.00,NNW,330,3.0,6.0,49,0.00,,,0.00,,2013-01-29 20:53:00,
2013-01-29 12:02:00,-9.0,-23.0,-100.00,NNW,330,3.0,6.0,49,0.00,,,0.00,,2013-01-29 21:02:00,
2013-01-29 12:12:00,-9.0,-23.0,-100.00,NNW,330,3.0,6.0,49,0.00,,,0.00,,2013-01-29 21:12:00,
2013-01-29 12:21:00,-9.0,-23.0,-100.00,WSW,240,2.0,4.0,49,0.00,,,0.00,,2013-01-29 21:21:00,
2013-01-29 12:33:00,-9.0,-23.0,-100.00,WSW,240,2.0,4.0,49,0.00,,,0.00,,2013-01-29 21:33:00,
2013-01-29 12:42:00,-9.0,-23.0,-100.00,WSW,240,2.0,4.0,49,0.00,,,0.00,,2013-01-29 21:42:00,
2013-01-29 12:53:00,-8.0,-22.0,-100.00,West,275,1.0,3.0,50,0.00,,,0.00,,2013-01-29 21:53:00,
2013-01-29 13:02:00,-8.0,-22.0,-100.00,West,275,1.0,3.0,50,0.00,,,0.00,,2013-01-29 22:02:00,
2013-01-29 13:12:00,-8.0,-22.0,-100.00,West,275,1.0,3.0,50,0.00,,,0.00,,2013-01-29 22:12:00,
2013-01-29 13:21:00,-8.0,-22.0,-100.00,SSW,210,1.0,3.0,50,0.00,,,0.00,,2013-01-29 22:21:00,
2013-01-29 13:33:00,-8.0,-22.0,-100.00,SSW,210,1.0,3.0,50,0.00,,,0.00,,2013-01-29 22:33:00,
2013-01-29 13:42:00,-8.0,-22.0,-100.00,SSW,210,1.0,3.0,50,0.00,,,0.00,,2013-01-29 22:42:00,
2013-01-29 13:53:00,-7.0,-21.0,-100.00,NW,315,1.0,4.0,49,0.00,,,0.00,,2013-01-29 22:53:00,
2013-01-29 14:02:00,-7.0,-21.0,-100.00,NW,315,1.0,4.0,49,0.00,,,0.00,,2013-01-29 23:02:00,
2013-01-29 15:22:00,-7.0,-22.0,-100.00,East,90,1.0,4.0,48,0.00,,,0.00,,2013-01-30 00:22:00,
2013-01-29 15:32:00,-7.0,-22.0,-100.00,East,90,1.0,4.0,48,0.00,,,0.00,,2013-01-30 00:32:00,
2013-01-29 15:42:00,-7.0,-22.0,-100.00,East,90,1.0,4.0,48,0.00,,,0.00,,2013-01-30 00:42:00,
2013-01-29 15:53:00,-8.0,-23.0,-100.00,WSW,255,0.0,1.0,48,0.00,,,0.00,,2013-01-30 00:53:00,
2013-01-29 16:01:00,-8.0,-23.0,-100.00,WSW,255,0.0,1.0,48,0.00,,,0.00,,2013-01-30 01:01:00,
2013-01-29 16:11:00,-8.0,-23.0,-100.00,WSW,255,0.0,1.0,48,0.00,,,0.00,,2013-01-30 01:11:00,
2013-01-29 16:22:00,-8.0,-22.0,-100.00,East,100,0.0,1.0,49,0.00,,,0.00,,2013-01-30 01:22:00,
2013-01-29 16:32:00,-8.0,-22.0,-100.00,East,100,0.0,1.0,49,0.00,,,0.00,,2013-01-30 01:32:00,
2013-01-29 16:42:00,-8.0,-22.0,-100.00,East,100,0.0,1.0,49,0.00,,,0.00,,2013-01-30 01:42:00,
2013-01-29 16:52:00,-9.0,-23.0,-100.00,NW,315,4.0,7.0,50,0.00,,,0.00,,2013-01-30 01:52:00,
2013-01-29 17:02:00,-9.0,-23.0,-100.00,NW,315,4.0,7.0,50,0.00,,,0.00,,2013-01-30 02:02:00,
2013-01-29 17:12:00,-9.0,-23.0,-100.00,NW,315,4.0,7.0,50,0.00,,,0.00,,2013-01-30 02:12:00,
2013-01-29 17:21:00,-10.0,-23.0,-100.00,NW,315,4.0,6.0,51,0.00,,,0.00,,2013-01-30 02:21:00,
2013-01-29 17:33:00,-10.0,-23.0,-100.00,NW,315,4.0,6.0,51,0.00,,,0.00,,2013-01-30 02:33:00,
2013-01-29 17:42:00,-10.0,-23.0,-100.00,NW,315,4.0,6.0,51,0.00,,,0.00,,2013-01-30 02:42:00,
2013-01-29 17:53:00,-9.0,-23.0,-100.00,WNW,285,2.0,7.0,50,0.00,,,0.00,,2013-01-30 02:53:00,
2013-01-29 18:02:00,-9.0,-23.0,-100.00,WNW,285,2.0,7.0,50,0.00,,,0.00,,2013-01-30 03:02:00,
2013-01-29 18:11:00,-9.0,-23.0,-100.00,WNW,285,2.0,7.0,50,0.00,,,0.00,,2013-01-30 03:11:00,
2013-01-29 18:21:00,-9.0,-22.0,-100.00,NW,310,1.0,3.0,50,0.00,,,0.00,,2013-01-30 03:21:00,
2013-01-29 18:32:00,-9.0,-22.0,-100.00,NW,310,1.0,3.0,50,0.00,,,0.00,,2013-01-30 03:32:00,
2013-01-29 18:42:00,-9.0,-22.0,-100.00,NW,310,1.0,3.0,50,0.00,,,0.00,,2013-01-30 03:42:00,
2013-01-29 18:52:00,-9.0,-22.0,-100.00,North,350,1.0,5.0,50,0.00,,,0.00,,2013-01-30 03:52:00,
2013-01-29 19:02:00,-9.0,-22.0,-100.00,North,350,1.0,5.0,50,0.00,,,0.00,,2013-01-30 04:02:00,
2013-01-29 19:11:00,-9.0,-22.0,-100.00,North,350,1.0,5.0,50,0.00,,,0.00,,2013-01-30 04:11:00,
2013-01-29 19:21:00,-9.0,-22.0,-100.00,NW,320,4.0,6.0,50,0.00,,,0.00,,2013-01-30 04:21:00,
2013-01-29 19:32:00,-9.0,-22.0,-100.00,NW,320,4.0,6.0,50,0.00,,,0.00,,2013-01-30 04:32:00,
2013-01-29 19:41:00,-9.0,-22.0,-100.00,NW,320,4.0,6.0,50,0.00,,,0.00,,2013-01-30 04:41:00,
2013-01-29 19:52:00,-7.0,-20.0,-100.00,South,185,3.0,7.0,51,0.00,,,0.00,,2013-01-30 04:52:00,
2013-01-29 20:03:00,-7.0,-20.0,-100.00,South,185,3.0,7.0,51,0.00,,,0.00,,2013-01-30 05:03:00,
2013-01-29 20:11:00,-7.0,-20.0,-100.00,South,185,3.0,7.0,51,0.00,,,0.00,,2013-01-30 05:11:00,
2013-01-29 20:22:00,-6.0,-19.0,-100.00,NNW,340,3.0,6.0,52,0.00,,,0.00,,2013-01-30 05:22:00,
2013-01-29 20:32:00,-6.0,-19.0,-100.00,NNW,340,3.0,6.0,52,0.00,,,0.00,,2013-01-30 05:32:00,
2013-01-29 20:42:00,-6.0,-19.0,-100.00,NNW,340,3.0,6.0,52,0.00,,,0.00,,2013-01-30 05:42:00,
2013-01-29 20:52:00,-7.0,-18.0,-100.00,North,0,4.0,5.0,59,0.00,,,0.00,,2013-01-30 05:52:00,
2013-01-29 21:02:00,-7.0,-18.0,-100.00,North,0,4.0,5.0,59,0.00,,,0.00,,2013-01-30 06:02:00,
2013-01-29 21:11:00,-7.0,-18.0,-100.00,North,0,4.0,5.0,59,0.00,,,0.00,,2013-01-30 06:11:00,
2013-01-29 21:21:00,-7.0,-17.0,-100.00,North,0,3.0,7.0,61,0.00,,,0.00,,2013-01-30 06:21:00,
2013-01-29 21:31:00,-7.0,-17.0,-100.00,North,0,3.0,7.0,61,0.00,,,0.00,,2013-01-30 06:31:00,
2013-01-29 21:41:00,-7.0,-17.0,-100.00,North,0,3.0,7.0,61,0.00,,,0.00,,2013-01-30 06:41:00,
2013-01-29 21:52:00,-5.0,-15.0,-100.00,NNW,335,1.0,2.0,62,0.00,,,0.00,,2013-01-30 06:52:00,
2013-01-29 22:01:00,-5.0,-15.0,-100.00,NNW,335,1.0,2.0,62,0.00,,,0.00,,2013-01-30 07:01:00,
2013-01-29 22:11:00,-5.0,-15.0,-100.00,NNW,335,1.0,2.0,62,0.00,,,0.00,,2013-01-30 07:11:00,
2013-01-29 22:21:00,-6.0,-15.0,-100.00,South,175,0.0,1.0,63,0.00,,,0.00,,2013-01-30 07:21:00,
2013-01-29 22:31:00,-6.0,-15.0,-100.00,South,175,0.0,1.0,63,0.00,,,0.00,,2013-01-30 07:31:00,
2013-01-29 22:41:00,-6.0,-15.0,-100.00,South,175,0.0,1.0,63,0.00,,,0.00,,2013-01-30 07:41:00,
2013-01-29 22:52:00,-6.0,-15.0,-100.00,NNW,345,1.0,2.0,64,0.00,,,0.00,,2013-01-30 07:52:00,
2013-01-29 23:01:00,-6.0,-15.0,-100.00,NNW,345,1.0,2.0,64,0.00,,,0.00,,2013-01-30 08:01:00,
2013-01-29 23:21:00,-5.0,-14.0,-100.00,NW,315,1.0,2.0,64,0.00,,,0.00,,2013-01-30 08:21:00,
2013-01-29 23:32:00,-5.0,-14.0,-100.00,NW,315,1.0,2.0,64,0.00,,,0.00,,2013-01-30 08:32:00,
2013-01-29 23:41:00,-5.0,-14.0,-100.00,NW,315,1.0,2.0,64,0.00,,,0.00,,2013-01-30 08:41:00,
2013-01-29 23:52:00,-4.0,-13.0,-100.00,SSE,160,4.0,4.0,65,0.00,,,0.00,,2013-01-30 08:52:00,